<?xml version="1.0" encoding="UTF-8" standalone="no" ?>
<gpx xmlns="http://www.topografix.com/GPX/1/1" xmlns:xsi="http://www.w3.org/2001/XMLSchema-instance" xsi:schemaLocation="http://www.topografix.com/GPX/1/1 http://www.topografix.com/GPX/1/1/gpx.xsd" version="1.1" creator="VisuGPX - https://www.visugpx.com">
  <metadata>
    <name>Circuit VTT 45km</name>
  </metadata>
  <wpt lat="48.59419" lon="-3.14793">
    <ele>57</ele>
    <name><![CDATA[Ravitaillement]]></name>
    <desc><![CDATA[]]></desc>
  </wpt>
  <wpt lat="48.56185" lon="-3.08294">
    <ele>134.3</ele>
    <name><![CDATA[Ravitaillement]]></name>
    <desc><![CDATA[]]></desc>
  </wpt>
  <trk>
    <name><![CDATA[Rando St Agathon 2024 45kms-19139203]]></name>
    <trkseg>
      <trkpt lat="48.5574" lon="-3.10457">
        <ele>120</ele>
        <time>2024-06-03T16:24:05Z</time>
      </trkpt>
      <trkpt lat="48.55761" lon="-3.10439">
        <ele>120</ele>
        <time>2024-06-03T16:24:11Z</time>
      </trkpt>
      <trkpt lat="48.55782" lon="-3.10439">
        <ele>119</ele>
        <time>2024-06-03T16:24:16Z</time>
      </trkpt>
      <trkpt lat="48.55814" lon="-3.10446">
        <ele>118</ele>
        <time>2024-06-03T16:24:23Z</time>
      </trkpt>
      <trkpt lat="48.55818" lon="-3.10369">
        <ele>119</ele>
        <time>2024-06-03T16:24:35Z</time>
      </trkpt>
      <trkpt lat="48.5584" lon="-3.1034">
        <ele>119</ele>
        <time>2024-06-03T16:24:42Z</time>
      </trkpt>
      <trkpt lat="48.5589" lon="-3.10334">
        <ele>118</ele>
        <time>2024-06-03T16:24:54Z</time>
      </trkpt>
      <trkpt lat="48.55916" lon="-3.10401">
        <ele>117</ele>
        <time>2024-06-03T16:25:06Z</time>
      </trkpt>
      <trkpt lat="48.55914" lon="-3.10465">
        <ele>115</ele>
        <time>2024-06-03T16:25:15Z</time>
      </trkpt>
      <trkpt lat="48.55941" lon="-3.1051">
        <ele>113</ele>
        <time>2024-06-03T16:25:25Z</time>
      </trkpt>
      <trkpt lat="48.55923" lon="-3.10572">
        <ele>114</ele>
        <time>2024-06-03T16:25:35Z</time>
      </trkpt>
      <trkpt lat="48.55951" lon="-3.10718">
        <ele>117</ele>
        <time>2024-06-03T16:25:59Z</time>
      </trkpt>
      <trkpt lat="48.55996" lon="-3.10794">
        <ele>118</ele>
        <time>2024-06-03T16:26:15Z</time>
      </trkpt>
      <trkpt lat="48.56053" lon="-3.11037">
        <ele>121</ele>
        <time>2024-06-03T16:26:54Z</time>
      </trkpt>
      <trkpt lat="48.56157" lon="-3.11059">
        <ele>121</ele>
        <time>2024-06-03T16:27:19Z</time>
      </trkpt>
      <trkpt lat="48.56194" lon="-3.10977">
        <ele>117</ele>
        <time>2024-06-03T16:27:34Z</time>
      </trkpt>
      <trkpt lat="48.56221" lon="-3.10948">
        <ele>113</ele>
        <time>2024-06-03T16:27:42Z</time>
      </trkpt>
      <trkpt lat="48.5633" lon="-3.11052">
        <ele>106</ele>
        <time>2024-06-03T16:28:12Z</time>
      </trkpt>
      <trkpt lat="48.56342" lon="-3.11049">
        <ele>105</ele>
        <time>2024-06-03T16:28:15Z</time>
      </trkpt>
      <trkpt lat="48.56349" lon="-3.11054">
        <ele>105</ele>
        <time>2024-06-03T16:28:17Z</time>
      </trkpt>
      <trkpt lat="48.56328" lon="-3.11061">
        <ele>106</ele>
        <time>2024-06-03T16:28:22Z</time>
      </trkpt>
      <trkpt lat="48.56332" lon="-3.1107">
        <ele>106</ele>
        <time>2024-06-03T16:28:23Z</time>
      </trkpt>
      <trkpt lat="48.56303" lon="-3.11143">
        <ele>110</ele>
        <time>2024-06-03T16:28:37Z</time>
      </trkpt>
      <trkpt lat="48.56297" lon="-3.11175">
        <ele>111</ele>
        <time>2024-06-03T16:28:42Z</time>
      </trkpt>
      <trkpt lat="48.56278" lon="-3.11181">
        <ele>114</ele>
        <time>2024-06-03T16:28:46Z</time>
      </trkpt>
      <trkpt lat="48.56268" lon="-3.1118">
        <ele>115</ele>
        <time>2024-06-03T16:28:49Z</time>
      </trkpt>
      <trkpt lat="48.56231" lon="-3.11206">
        <ele>118</ele>
        <time>2024-06-03T16:28:58Z</time>
      </trkpt>
      <trkpt lat="48.56221" lon="-3.1122">
        <ele>118</ele>
        <time>2024-06-03T16:29:01Z</time>
      </trkpt>
      <trkpt lat="48.5622" lon="-3.11261">
        <ele>118</ele>
        <time>2024-06-03T16:29:08Z</time>
      </trkpt>
      <trkpt lat="48.56224" lon="-3.11294">
        <ele>118</ele>
        <time>2024-06-03T16:29:13Z</time>
      </trkpt>
      <trkpt lat="48.56241" lon="-3.11314">
        <ele>117</ele>
        <time>2024-06-03T16:29:18Z</time>
      </trkpt>
      <trkpt lat="48.56261" lon="-3.11296">
        <ele>116</ele>
        <time>2024-06-03T16:29:23Z</time>
      </trkpt>
      <trkpt lat="48.56294" lon="-3.11287">
        <ele>113</ele>
        <time>2024-06-03T16:29:31Z</time>
      </trkpt>
      <trkpt lat="48.56302" lon="-3.1128">
        <ele>113</ele>
        <time>2024-06-03T16:29:33Z</time>
      </trkpt>
      <trkpt lat="48.5632" lon="-3.11277">
        <ele>111</ele>
        <time>2024-06-03T16:29:38Z</time>
      </trkpt>
      <trkpt lat="48.56356" lon="-3.11329">
        <ele>109</ele>
        <time>2024-06-03T16:29:49Z</time>
      </trkpt>
      <trkpt lat="48.56374" lon="-3.11347">
        <ele>109</ele>
        <time>2024-06-03T16:29:54Z</time>
      </trkpt>
      <trkpt lat="48.56379" lon="-3.11374">
        <ele>110</ele>
        <time>2024-06-03T16:29:59Z</time>
      </trkpt>
      <trkpt lat="48.56386" lon="-3.11379">
        <ele>110</ele>
        <time>2024-06-03T16:30:00Z</time>
      </trkpt>
      <trkpt lat="48.56401" lon="-3.11361">
        <ele>109</ele>
        <time>2024-06-03T16:30:05Z</time>
      </trkpt>
      <trkpt lat="48.56402" lon="-3.11377">
        <ele>109</ele>
        <time>2024-06-03T16:30:07Z</time>
      </trkpt>
      <trkpt lat="48.56371" lon="-3.11399">
        <ele>112</ele>
        <time>2024-06-03T16:30:15Z</time>
      </trkpt>
      <trkpt lat="48.56351" lon="-3.11423">
        <ele>115</ele>
        <time>2024-06-03T16:30:21Z</time>
      </trkpt>
      <trkpt lat="48.56337" lon="-3.11465">
        <ele>118</ele>
        <time>2024-06-03T16:30:29Z</time>
      </trkpt>
      <trkpt lat="48.56317" lon="-3.11504">
        <ele>119</ele>
        <time>2024-06-03T16:30:36Z</time>
      </trkpt>
      <trkpt lat="48.56305" lon="-3.11514">
        <ele>120</ele>
        <time>2024-06-03T16:30:39Z</time>
      </trkpt>
      <trkpt lat="48.56304" lon="-3.11527">
        <ele>119</ele>
        <time>2024-06-03T16:30:41Z</time>
      </trkpt>
      <trkpt lat="48.56324" lon="-3.11586">
        <ele>118</ele>
        <time>2024-06-03T16:30:52Z</time>
      </trkpt>
      <trkpt lat="48.56346" lon="-3.11619">
        <ele>118</ele>
        <time>2024-06-03T16:30:59Z</time>
      </trkpt>
      <trkpt lat="48.56359" lon="-3.116">
        <ele>117</ele>
        <time>2024-06-03T16:31:03Z</time>
      </trkpt>
      <trkpt lat="48.56387" lon="-3.11467">
        <ele>113</ele>
        <time>2024-06-03T16:31:25Z</time>
      </trkpt>
      <trkpt lat="48.56395" lon="-3.11455">
        <ele>112</ele>
        <time>2024-06-03T16:31:27Z</time>
      </trkpt>
      <trkpt lat="48.56408" lon="-3.11416">
        <ele>110</ele>
        <time>2024-06-03T16:31:34Z</time>
      </trkpt>
      <trkpt lat="48.56408" lon="-3.1139">
        <ele>109</ele>
        <time>2024-06-03T16:31:38Z</time>
      </trkpt>
      <trkpt lat="48.56413" lon="-3.11364">
        <ele>108</ele>
        <time>2024-06-03T16:31:42Z</time>
      </trkpt>
      <trkpt lat="48.56414" lon="-3.11329">
        <ele>107</ele>
        <time>2024-06-03T16:31:48Z</time>
      </trkpt>
      <trkpt lat="48.56408" lon="-3.1131">
        <ele>107</ele>
        <time>2024-06-03T16:31:51Z</time>
      </trkpt>
      <trkpt lat="48.5638" lon="-3.11282">
        <ele>108</ele>
        <time>2024-06-03T16:31:59Z</time>
      </trkpt>
      <trkpt lat="48.56375" lon="-3.11265">
        <ele>108</ele>
        <time>2024-06-03T16:32:02Z</time>
      </trkpt>
      <trkpt lat="48.56376" lon="-3.1122">
        <ele>107</ele>
        <time>2024-06-03T16:32:09Z</time>
      </trkpt>
      <trkpt lat="48.56387" lon="-3.11189">
        <ele>105</ele>
        <time>2024-06-03T16:32:14Z</time>
      </trkpt>
      <trkpt lat="48.564" lon="-3.11176">
        <ele>105</ele>
        <time>2024-06-03T16:32:18Z</time>
      </trkpt>
      <trkpt lat="48.56405" lon="-3.11165">
        <ele>104</ele>
        <time>2024-06-03T16:32:20Z</time>
      </trkpt>
      <trkpt lat="48.56433" lon="-3.1116">
        <ele>103</ele>
        <time>2024-06-03T16:32:26Z</time>
      </trkpt>
      <trkpt lat="48.56449" lon="-3.11151">
        <ele>102</ele>
        <time>2024-06-03T16:32:30Z</time>
      </trkpt>
      <trkpt lat="48.56451" lon="-3.11137">
        <ele>102</ele>
        <time>2024-06-03T16:32:33Z</time>
      </trkpt>
      <trkpt lat="48.56447" lon="-3.11118">
        <ele>102</ele>
        <time>2024-06-03T16:32:36Z</time>
      </trkpt>
      <trkpt lat="48.56447" lon="-3.11095">
        <ele>102</ele>
        <time>2024-06-03T16:32:39Z</time>
      </trkpt>
      <trkpt lat="48.5645" lon="-3.11023">
        <ele>102</ele>
        <time>2024-06-03T16:32:50Z</time>
      </trkpt>
      <trkpt lat="48.56452" lon="-3.11004">
        <ele>102</ele>
        <time>2024-06-03T16:32:53Z</time>
      </trkpt>
      <trkpt lat="48.56461" lon="-3.11">
        <ele>102</ele>
        <time>2024-06-03T16:32:55Z</time>
      </trkpt>
      <trkpt lat="48.5645" lon="-3.10951">
        <ele>103</ele>
        <time>2024-06-03T16:33:03Z</time>
      </trkpt>
      <trkpt lat="48.56415" lon="-3.10911">
        <ele>104</ele>
        <time>2024-06-03T16:33:14Z</time>
      </trkpt>
      <trkpt lat="48.56388" lon="-3.1089">
        <ele>104</ele>
        <time>2024-06-03T16:33:21Z</time>
      </trkpt>
      <trkpt lat="48.56356" lon="-3.1084">
        <ele>103</ele>
        <time>2024-06-03T16:33:32Z</time>
      </trkpt>
      <trkpt lat="48.56292" lon="-3.10839">
        <ele>106</ele>
        <time>2024-06-03T16:33:47Z</time>
      </trkpt>
      <trkpt lat="48.56198" lon="-3.10722">
        <ele>108</ele>
        <time>2024-06-03T16:34:15Z</time>
      </trkpt>
      <trkpt lat="48.56196" lon="-3.10689">
        <ele>108</ele>
        <time>2024-06-03T16:34:20Z</time>
      </trkpt>
      <trkpt lat="48.56207" lon="-3.10701">
        <ele>108</ele>
        <time>2024-06-03T16:34:23Z</time>
      </trkpt>
      <trkpt lat="48.56233" lon="-3.1071">
        <ele>108</ele>
        <time>2024-06-03T16:34:29Z</time>
      </trkpt>
      <trkpt lat="48.56256" lon="-3.10725">
        <ele>107</ele>
        <time>2024-06-03T16:34:35Z</time>
      </trkpt>
      <trkpt lat="48.56267" lon="-3.10746">
        <ele>106</ele>
        <time>2024-06-03T16:34:39Z</time>
      </trkpt>
      <trkpt lat="48.56293" lon="-3.1078">
        <ele>106</ele>
        <time>2024-06-03T16:34:48Z</time>
      </trkpt>
      <trkpt lat="48.56306" lon="-3.10791">
        <ele>105</ele>
        <time>2024-06-03T16:34:51Z</time>
      </trkpt>
      <trkpt lat="48.56309" lon="-3.10815">
        <ele>105</ele>
        <time>2024-06-03T16:34:55Z</time>
      </trkpt>
      <trkpt lat="48.56315" lon="-3.10832">
        <ele>104</ele>
        <time>2024-06-03T16:34:58Z</time>
      </trkpt>
      <trkpt lat="48.5634" lon="-3.10832">
        <ele>103</ele>
        <time>2024-06-03T16:35:04Z</time>
      </trkpt>
      <trkpt lat="48.5636" lon="-3.10796">
        <ele>106</ele>
        <time>2024-06-03T16:35:11Z</time>
      </trkpt>
      <trkpt lat="48.56364" lon="-3.1078">
        <ele>107</ele>
        <time>2024-06-03T16:35:13Z</time>
      </trkpt>
      <trkpt lat="48.56374" lon="-3.10773">
        <ele>108</ele>
        <time>2024-06-03T16:35:16Z</time>
      </trkpt>
      <trkpt lat="48.56375" lon="-3.10763">
        <ele>109</ele>
        <time>2024-06-03T16:35:18Z</time>
      </trkpt>
      <trkpt lat="48.56384" lon="-3.10771">
        <ele>109</ele>
        <time>2024-06-03T16:35:20Z</time>
      </trkpt>
      <trkpt lat="48.56391" lon="-3.1074">
        <ele>112</ele>
        <time>2024-06-03T16:35:25Z</time>
      </trkpt>
      <trkpt lat="48.56442" lon="-3.10667">
        <ele>123</ele>
        <time>2024-06-03T16:35:42Z</time>
      </trkpt>
      <trkpt lat="48.56402" lon="-3.10689">
        <ele>119</ele>
        <time>2024-06-03T16:35:51Z</time>
      </trkpt>
      <trkpt lat="48.56374" lon="-3.10698">
        <ele>116</ele>
        <time>2024-06-03T16:35:58Z</time>
      </trkpt>
      <trkpt lat="48.56344" lon="-3.10681">
        <ele>117</ele>
        <time>2024-06-03T16:36:06Z</time>
      </trkpt>
      <trkpt lat="48.5638" lon="-3.1064">
        <ele>122</ele>
        <time>2024-06-03T16:36:16Z</time>
      </trkpt>
      <trkpt lat="48.56379" lon="-3.10594">
        <ele>123</ele>
        <time>2024-06-03T16:36:23Z</time>
      </trkpt>
      <trkpt lat="48.56346" lon="-3.10581">
        <ele>122</ele>
        <time>2024-06-03T16:36:31Z</time>
      </trkpt>
      <trkpt lat="48.56282" lon="-3.10607">
        <ele>116</ele>
        <time>2024-06-03T16:36:47Z</time>
      </trkpt>
      <trkpt lat="48.56247" lon="-3.10604">
        <ele>114</ele>
        <time>2024-06-03T16:36:55Z</time>
      </trkpt>
      <trkpt lat="48.56248" lon="-3.10554">
        <ele>115</ele>
        <time>2024-06-03T16:37:03Z</time>
      </trkpt>
      <trkpt lat="48.56231" lon="-3.10547">
        <ele>114</ele>
        <time>2024-06-03T16:37:07Z</time>
      </trkpt>
      <trkpt lat="48.56208" lon="-3.10529">
        <ele>113</ele>
        <time>2024-06-03T16:37:13Z</time>
      </trkpt>
      <trkpt lat="48.56195" lon="-3.10455">
        <ele>112</ele>
        <time>2024-06-03T16:37:25Z</time>
      </trkpt>
      <trkpt lat="48.5618" lon="-3.10405">
        <ele>110</ele>
        <time>2024-06-03T16:37:33Z</time>
      </trkpt>
      <trkpt lat="48.56157" lon="-3.10393">
        <ele>108</ele>
        <time>2024-06-03T16:37:39Z</time>
      </trkpt>
      <trkpt lat="48.56146" lon="-3.10341">
        <ele>108</ele>
        <time>2024-06-03T16:37:47Z</time>
      </trkpt>
      <trkpt lat="48.56061" lon="-3.10217">
        <ele>111</ele>
        <time>2024-06-03T16:38:15Z</time>
      </trkpt>
      <trkpt lat="48.56011" lon="-3.101">
        <ele>111</ele>
        <time>2024-06-03T16:38:36Z</time>
      </trkpt>
      <trkpt lat="48.56006" lon="-3.09934">
        <ele>112</ele>
        <time>2024-06-03T16:39:02Z</time>
      </trkpt>
      <trkpt lat="48.5598" lon="-3.09887">
        <ele>110</ele>
        <time>2024-06-03T16:39:12Z</time>
      </trkpt>
      <trkpt lat="48.55935" lon="-3.09824">
        <ele>110</ele>
        <time>2024-06-03T16:39:26Z</time>
      </trkpt>
      <trkpt lat="48.5602" lon="-3.09632">
        <ele>113</ele>
        <time>2024-06-03T16:40:02Z</time>
      </trkpt>
      <trkpt lat="48.56098" lon="-3.09633">
        <ele>115</ele>
        <time>2024-06-03T16:40:20Z</time>
      </trkpt>
      <trkpt lat="48.56281" lon="-3.09793">
        <ele>123</ele>
        <time>2024-06-03T16:41:09Z</time>
      </trkpt>
      <trkpt lat="48.56329" lon="-3.09815">
        <ele>123</ele>
        <time>2024-06-03T16:41:21Z</time>
      </trkpt>
      <trkpt lat="48.56359" lon="-3.0981">
        <ele>124</ele>
        <time>2024-06-03T16:41:28Z</time>
      </trkpt>
      <trkpt lat="48.56368" lon="-3.09828">
        <ele>125</ele>
        <time>2024-06-03T16:41:31Z</time>
      </trkpt>
      <trkpt lat="48.56302" lon="-3.0999">
        <ele>125</ele>
        <time>2024-06-03T16:42:01Z</time>
      </trkpt>
      <trkpt lat="48.5628" lon="-3.10106">
        <ele>127</ele>
        <time>2024-06-03T16:42:19Z</time>
      </trkpt>
      <trkpt lat="48.5633" lon="-3.10164">
        <ele>132</ele>
        <time>2024-06-03T16:42:34Z</time>
      </trkpt>
      <trkpt lat="48.56405" lon="-3.10183">
        <ele>132</ele>
        <time>2024-06-03T16:42:52Z</time>
      </trkpt>
      <trkpt lat="48.56453" lon="-3.10247">
        <ele>129</ele>
        <time>2024-06-03T16:43:07Z</time>
      </trkpt>
      <trkpt lat="48.56432" lon="-3.10371">
        <ele>124</ele>
        <time>2024-06-03T16:43:27Z</time>
      </trkpt>
      <trkpt lat="48.56502" lon="-3.10436">
        <ele>120</ele>
        <time>2024-06-03T16:43:46Z</time>
      </trkpt>
      <trkpt lat="48.5658" lon="-3.1047">
        <ele>121</ele>
        <time>2024-06-03T16:44:05Z</time>
      </trkpt>
      <trkpt lat="48.56676" lon="-3.10506">
        <ele>122</ele>
        <time>2024-06-03T16:44:28Z</time>
      </trkpt>
      <trkpt lat="48.56662" lon="-3.10568">
        <ele>121</ele>
        <time>2024-06-03T16:44:38Z</time>
      </trkpt>
      <trkpt lat="48.56672" lon="-3.10594">
        <ele>120</ele>
        <time>2024-06-03T16:44:43Z</time>
      </trkpt>
      <trkpt lat="48.56667" lon="-3.10664">
        <ele>121</ele>
        <time>2024-06-03T16:44:54Z</time>
      </trkpt>
      <trkpt lat="48.5665" lon="-3.10744">
        <ele>118</ele>
        <time>2024-06-03T16:45:07Z</time>
      </trkpt>
      <trkpt lat="48.5662" lon="-3.10804">
        <ele>114</ele>
        <time>2024-06-03T16:45:18Z</time>
      </trkpt>
      <trkpt lat="48.56611" lon="-3.10846">
        <ele>112</ele>
        <time>2024-06-03T16:45:25Z</time>
      </trkpt>
      <trkpt lat="48.56765" lon="-3.10914">
        <ele>119</ele>
        <time>2024-06-03T16:46:02Z</time>
      </trkpt>
      <trkpt lat="48.56807" lon="-3.10917">
        <ele>120</ele>
        <time>2024-06-03T16:46:12Z</time>
      </trkpt>
      <trkpt lat="48.56896" lon="-3.10965">
        <ele>120</ele>
        <time>2024-06-03T16:46:34Z</time>
      </trkpt>
      <trkpt lat="48.57059" lon="-3.11025">
        <ele>115</ele>
        <time>2024-06-03T16:47:13Z</time>
      </trkpt>
      <trkpt lat="48.57153" lon="-3.11081">
        <ele>113</ele>
        <time>2024-06-03T16:47:37Z</time>
      </trkpt>
      <trkpt lat="48.57135" lon="-3.11126">
        <ele>114</ele>
        <time>2024-06-03T16:47:45Z</time>
      </trkpt>
      <trkpt lat="48.57102" lon="-3.11164">
        <ele>113</ele>
        <time>2024-06-03T16:47:55Z</time>
      </trkpt>
      <trkpt lat="48.5707" lon="-3.11292">
        <ele>110</ele>
        <time>2024-06-03T16:48:16Z</time>
      </trkpt>
      <trkpt lat="48.5709" lon="-3.11412">
        <ele>108</ele>
        <time>2024-06-03T16:48:35Z</time>
      </trkpt>
      <trkpt lat="48.57142" lon="-3.11512">
        <ele>105</ele>
        <time>2024-06-03T16:48:55Z</time>
      </trkpt>
      <trkpt lat="48.5719" lon="-3.11567">
        <ele>104</ele>
        <time>2024-06-03T16:49:09Z</time>
      </trkpt>
      <trkpt lat="48.57212" lon="-3.1157">
        <ele>105</ele>
        <time>2024-06-03T16:49:14Z</time>
      </trkpt>
      <trkpt lat="48.57233" lon="-3.11606">
        <ele>105</ele>
        <time>2024-06-03T16:49:21Z</time>
      </trkpt>
      <trkpt lat="48.57213" lon="-3.11643">
        <ele>105</ele>
        <time>2024-06-03T16:49:29Z</time>
      </trkpt>
      <trkpt lat="48.57219" lon="-3.11683">
        <ele>106</ele>
        <time>2024-06-03T16:49:35Z</time>
      </trkpt>
      <trkpt lat="48.57241" lon="-3.11722">
        <ele>105</ele>
        <time>2024-06-03T16:49:43Z</time>
      </trkpt>
      <trkpt lat="48.57274" lon="-3.11766">
        <ele>103</ele>
        <time>2024-06-03T16:49:53Z</time>
      </trkpt>
      <trkpt lat="48.57288" lon="-3.11743">
        <ele>103</ele>
        <time>2024-06-03T16:49:58Z</time>
      </trkpt>
      <trkpt lat="48.57272" lon="-3.11705">
        <ele>104</ele>
        <time>2024-06-03T16:50:05Z</time>
      </trkpt>
      <trkpt lat="48.57258" lon="-3.11651">
        <ele>105</ele>
        <time>2024-06-03T16:50:14Z</time>
      </trkpt>
      <trkpt lat="48.57273" lon="-3.11616">
        <ele>106</ele>
        <time>2024-06-03T16:50:21Z</time>
      </trkpt>
      <trkpt lat="48.57294" lon="-3.11651">
        <ele>107</ele>
        <time>2024-06-03T16:50:28Z</time>
      </trkpt>
      <trkpt lat="48.57319" lon="-3.11717">
        <ele>105</ele>
        <time>2024-06-03T16:50:40Z</time>
      </trkpt>
      <trkpt lat="48.57344" lon="-3.11766">
        <ele>103</ele>
        <time>2024-06-03T16:50:49Z</time>
      </trkpt>
      <trkpt lat="48.5732" lon="-3.11801">
        <ele>100</ele>
        <time>2024-06-03T16:50:57Z</time>
      </trkpt>
      <trkpt lat="48.57274" lon="-3.11829">
        <ele>103</ele>
        <time>2024-06-03T16:51:09Z</time>
      </trkpt>
      <trkpt lat="48.57234" lon="-3.11788">
        <ele>106</ele>
        <time>2024-06-03T16:51:20Z</time>
      </trkpt>
      <trkpt lat="48.57187" lon="-3.11719">
        <ele>108</ele>
        <time>2024-06-03T16:51:35Z</time>
      </trkpt>
      <trkpt lat="48.57158" lon="-3.11671">
        <ele>107</ele>
        <time>2024-06-03T16:51:45Z</time>
      </trkpt>
      <trkpt lat="48.57166" lon="-3.1175">
        <ele>111</ele>
        <time>2024-06-03T16:51:58Z</time>
      </trkpt>
      <trkpt lat="48.57153" lon="-3.11851">
        <ele>111</ele>
        <time>2024-06-03T16:52:13Z</time>
      </trkpt>
      <trkpt lat="48.57042" lon="-3.12164">
        <ele>121</ele>
        <time>2024-06-03T16:53:08Z</time>
      </trkpt>
      <trkpt lat="48.57051" lon="-3.1232">
        <ele>124</ele>
        <time>2024-06-03T16:53:33Z</time>
      </trkpt>
      <trkpt lat="48.5708" lon="-3.1244">
        <ele>125</ele>
        <time>2024-06-03T16:53:52Z</time>
      </trkpt>
      <trkpt lat="48.57169" lon="-3.1205">
        <ele>114</ele>
        <time>2024-06-03T16:54:56Z</time>
      </trkpt>
      <trkpt lat="48.57228" lon="-3.11895">
        <ele>109</ele>
        <time>2024-06-03T16:55:24Z</time>
      </trkpt>
      <trkpt lat="48.57255" lon="-3.11918">
        <ele>108</ele>
        <time>2024-06-03T16:55:31Z</time>
      </trkpt>
      <trkpt lat="48.57358" lon="-3.12103">
        <ele>104</ele>
        <time>2024-06-03T16:56:08Z</time>
      </trkpt>
      <trkpt lat="48.57403" lon="-3.12213">
        <ele>100</ele>
        <time>2024-06-03T16:56:28Z</time>
      </trkpt>
      <trkpt lat="48.57373" lon="-3.12278">
        <ele>105</ele>
        <time>2024-06-03T16:56:40Z</time>
      </trkpt>
      <trkpt lat="48.57396" lon="-3.12349">
        <ele>106</ele>
        <time>2024-06-03T16:56:53Z</time>
      </trkpt>
      <trkpt lat="48.57359" lon="-3.12425">
        <ele>109</ele>
        <time>2024-06-03T16:57:07Z</time>
      </trkpt>
      <trkpt lat="48.57339" lon="-3.12584">
        <ele>119</ele>
        <time>2024-06-03T16:57:32Z</time>
      </trkpt>
      <trkpt lat="48.57483" lon="-3.12472">
        <ele>106</ele>
        <time>2024-06-03T16:58:10Z</time>
      </trkpt>
      <trkpt lat="48.57513" lon="-3.12457">
        <ele>104</ele>
        <time>2024-06-03T16:58:17Z</time>
      </trkpt>
      <trkpt lat="48.57555" lon="-3.12292">
        <ele>97</ele>
        <time>2024-06-03T16:58:45Z</time>
      </trkpt>
      <trkpt lat="48.57581" lon="-3.12278">
        <ele>96</ele>
        <time>2024-06-03T16:58:51Z</time>
      </trkpt>
      <trkpt lat="48.57669" lon="-3.12291">
        <ele>91</ele>
        <time>2024-06-03T16:59:12Z</time>
      </trkpt>
      <trkpt lat="48.57742" lon="-3.12299">
        <ele>90</ele>
        <time>2024-06-03T16:59:29Z</time>
      </trkpt>
      <trkpt lat="48.57773" lon="-3.12266">
        <ele>94</ele>
        <time>2024-06-03T16:59:38Z</time>
      </trkpt>
      <trkpt lat="48.57687" lon="-3.12176">
        <ele>99</ele>
        <time>2024-06-03T17:00:02Z</time>
      </trkpt>
      <trkpt lat="48.57753" lon="-3.1199">
        <ele>106</ele>
        <time>2024-06-03T17:00:35Z</time>
      </trkpt>
      <trkpt lat="48.57856" lon="-3.11873">
        <ele>106</ele>
        <time>2024-06-03T17:01:05Z</time>
      </trkpt>
      <trkpt lat="48.57899" lon="-3.1188">
        <ele>105</ele>
        <time>2024-06-03T17:01:15Z</time>
      </trkpt>
      <trkpt lat="48.57934" lon="-3.11945">
        <ele>101</ele>
        <time>2024-06-03T17:01:28Z</time>
      </trkpt>
      <trkpt lat="48.58067" lon="-3.12012">
        <ele>100</ele>
        <time>2024-06-03T17:02:01Z</time>
      </trkpt>
      <trkpt lat="48.58111" lon="-3.11988">
        <ele>100</ele>
        <time>2024-06-03T17:02:12Z</time>
      </trkpt>
      <trkpt lat="48.58211" lon="-3.12012">
        <ele>99</ele>
        <time>2024-06-03T17:02:35Z</time>
      </trkpt>
      <trkpt lat="48.58125" lon="-3.12227">
        <ele>99</ele>
        <time>2024-06-03T17:03:14Z</time>
      </trkpt>
      <trkpt lat="48.58102" lon="-3.12227">
        <ele>99</ele>
        <time>2024-06-03T17:03:19Z</time>
      </trkpt>
      <trkpt lat="48.5801" lon="-3.12425">
        <ele>88</ele>
        <time>2024-06-03T17:03:57Z</time>
      </trkpt>
      <trkpt lat="48.57964" lon="-3.12461">
        <ele>87</ele>
        <time>2024-06-03T17:04:09Z</time>
      </trkpt>
      <trkpt lat="48.57914" lon="-3.12452">
        <ele>89</ele>
        <time>2024-06-03T17:04:21Z</time>
      </trkpt>
      <trkpt lat="48.57883" lon="-3.12546">
        <ele>94</ele>
        <time>2024-06-03T17:04:37Z</time>
      </trkpt>
      <trkpt lat="48.58163" lon="-3.12685">
        <ele>106</ele>
        <time>2024-06-03T17:05:46Z</time>
      </trkpt>
      <trkpt lat="48.58231" lon="-3.12847">
        <ele>112</ele>
        <time>2024-06-03T17:06:15Z</time>
      </trkpt>
      <trkpt lat="48.5833" lon="-3.13334">
        <ele>118</ele>
        <time>2024-06-03T17:07:34Z</time>
      </trkpt>
      <trkpt lat="48.58348" lon="-3.13408">
        <ele>117</ele>
        <time>2024-06-03T17:07:46Z</time>
      </trkpt>
      <trkpt lat="48.58382" lon="-3.1345">
        <ele>117</ele>
        <time>2024-06-03T17:07:57Z</time>
      </trkpt>
      <trkpt lat="48.58284" lon="-3.13488">
        <ele>121</ele>
        <time>2024-06-03T17:08:20Z</time>
      </trkpt>
      <trkpt lat="48.58149" lon="-3.13627">
        <ele>126</ele>
        <time>2024-06-03T17:08:58Z</time>
      </trkpt>
      <trkpt lat="48.58081" lon="-3.13759">
        <ele>129</ele>
        <time>2024-06-03T17:09:24Z</time>
      </trkpt>
      <trkpt lat="48.58076" lon="-3.13901">
        <ele>131</ele>
        <time>2024-06-03T17:09:46Z</time>
      </trkpt>
      <trkpt lat="48.58027" lon="-3.13982">
        <ele>130</ele>
        <time>2024-06-03T17:10:03Z</time>
      </trkpt>
      <trkpt lat="48.57873" lon="-3.141">
        <ele>133</ele>
        <time>2024-06-03T17:10:43Z</time>
      </trkpt>
      <trkpt lat="48.57892" lon="-3.14226">
        <ele>131</ele>
        <time>2024-06-03T17:11:03Z</time>
      </trkpt>
      <trkpt lat="48.57819" lon="-3.14244">
        <ele>130</ele>
        <time>2024-06-03T17:11:21Z</time>
      </trkpt>
      <trkpt lat="48.57825" lon="-3.14569">
        <ele>130</ele>
        <time>2024-06-03T17:12:11Z</time>
      </trkpt>
      <trkpt lat="48.578" lon="-3.14561">
        <ele>129</ele>
        <time>2024-06-03T17:12:17Z</time>
      </trkpt>
      <trkpt lat="48.57794" lon="-3.1465">
        <ele>126</ele>
        <time>2024-06-03T17:12:31Z</time>
      </trkpt>
      <trkpt lat="48.57798" lon="-3.14693">
        <ele>125</ele>
        <time>2024-06-03T17:12:37Z</time>
      </trkpt>
      <trkpt lat="48.57827" lon="-3.14722">
        <ele>124</ele>
        <time>2024-06-03T17:12:46Z</time>
      </trkpt>
      <trkpt lat="48.57788" lon="-3.14884">
        <ele>125</ele>
        <time>2024-06-03T17:13:12Z</time>
      </trkpt>
      <trkpt lat="48.57861" lon="-3.15009">
        <ele>121</ele>
        <time>2024-06-03T17:13:38Z</time>
      </trkpt>
      <trkpt lat="48.57902" lon="-3.14996">
        <ele>120</ele>
        <time>2024-06-03T17:13:48Z</time>
      </trkpt>
      <trkpt lat="48.57941" lon="-3.15197">
        <ele>118</ele>
        <time>2024-06-03T17:14:20Z</time>
      </trkpt>
      <trkpt lat="48.57998" lon="-3.15294">
        <ele>116</ele>
        <time>2024-06-03T17:14:40Z</time>
      </trkpt>
      <trkpt lat="48.58046" lon="-3.15314">
        <ele>115</ele>
        <time>2024-06-03T17:14:52Z</time>
      </trkpt>
      <trkpt lat="48.58021" lon="-3.15382">
        <ele>115</ele>
        <time>2024-06-03T17:15:04Z</time>
      </trkpt>
      <trkpt lat="48.5802" lon="-3.15422">
        <ele>115</ele>
        <time>2024-06-03T17:15:10Z</time>
      </trkpt>
      <trkpt lat="48.57932" lon="-3.15455">
        <ele>115</ele>
        <time>2024-06-03T17:15:31Z</time>
      </trkpt>
      <trkpt lat="48.57767" lon="-3.15451">
        <ele>119</ele>
        <time>2024-06-03T17:16:10Z</time>
      </trkpt>
      <trkpt lat="48.57587" lon="-3.15355">
        <ele>121</ele>
        <time>2024-06-03T17:16:54Z</time>
      </trkpt>
      <trkpt lat="48.5759" lon="-3.15619">
        <ele>118</ele>
        <time>2024-06-03T17:17:35Z</time>
      </trkpt>
      <trkpt lat="48.57624" lon="-3.15651">
        <ele>117</ele>
        <time>2024-06-03T17:17:44Z</time>
      </trkpt>
      <trkpt lat="48.57626" lon="-3.15843">
        <ele>110</ele>
        <time>2024-06-03T17:18:14Z</time>
      </trkpt>
      <trkpt lat="48.57691" lon="-3.15862">
        <ele>109</ele>
        <time>2024-06-03T17:18:30Z</time>
      </trkpt>
      <trkpt lat="48.57825" lon="-3.15942">
        <ele>110</ele>
        <time>2024-06-03T17:19:03Z</time>
      </trkpt>
      <trkpt lat="48.57866" lon="-3.15889">
        <ele>113</ele>
        <time>2024-06-03T17:19:16Z</time>
      </trkpt>
      <trkpt lat="48.58059" lon="-3.15918">
        <ele>110</ele>
        <time>2024-06-03T17:20:01Z</time>
      </trkpt>
      <trkpt lat="48.58098" lon="-3.16034">
        <ele>110</ele>
        <time>2024-06-03T17:20:21Z</time>
      </trkpt>
      <trkpt lat="48.58435" lon="-3.15844">
        <ele>102</ele>
        <time>2024-06-03T17:21:45Z</time>
      </trkpt>
      <trkpt lat="48.58439" lon="-3.15788">
        <ele>100</ele>
        <time>2024-06-03T17:21:54Z</time>
      </trkpt>
      <trkpt lat="48.58391" lon="-3.15579">
        <ele>104</ele>
        <time>2024-06-03T17:22:28Z</time>
      </trkpt>
      <trkpt lat="48.58406" lon="-3.15554">
        <ele>102</ele>
        <time>2024-06-03T17:22:33Z</time>
      </trkpt>
      <trkpt lat="48.58488" lon="-3.15604">
        <ele>94</ele>
        <time>2024-06-03T17:22:54Z</time>
      </trkpt>
      <trkpt lat="48.58544" lon="-3.1553">
        <ele>82</ele>
        <time>2024-06-03T17:23:11Z</time>
      </trkpt>
      <trkpt lat="48.58569" lon="-3.15386">
        <ele>78</ele>
        <time>2024-06-03T17:23:34Z</time>
      </trkpt>
      <trkpt lat="48.58595" lon="-3.15336">
        <ele>74</ele>
        <time>2024-06-03T17:23:44Z</time>
      </trkpt>
      <trkpt lat="48.58644" lon="-3.15083">
        <ele>71</ele>
        <time>2024-06-03T17:24:25Z</time>
      </trkpt>
      <trkpt lat="48.58723" lon="-3.14955">
        <ele>76</ele>
        <time>2024-06-03T17:24:52Z</time>
      </trkpt>
      <trkpt lat="48.58777" lon="-3.14913">
        <ele>74</ele>
        <time>2024-06-03T17:25:06Z</time>
      </trkpt>
      <trkpt lat="48.58811" lon="-3.14863">
        <ele>79</ele>
        <time>2024-06-03T17:25:17Z</time>
      </trkpt>
      <trkpt lat="48.59142" lon="-3.14742">
        <ele>66</ele>
        <time>2024-06-03T17:26:37Z</time>
      </trkpt>
      <trkpt lat="48.59257" lon="-3.14738">
        <ele>62</ele>
        <time>2024-06-03T17:27:04Z</time>
      </trkpt>
      <trkpt lat="48.59375" lon="-3.14773">
        <ele>63</ele>
        <time>2024-06-03T17:27:32Z</time>
      </trkpt>
      <trkpt lat="48.5941" lon="-3.14742">
        <ele>65</ele>
        <time>2024-06-03T17:27:41Z</time>
      </trkpt>
      <trkpt lat="48.59408" lon="-3.14718">
        <ele>67</ele>
        <time>2024-06-03T17:27:45Z</time>
      </trkpt>
      <trkpt lat="48.59396" lon="-3.147">
        <ele>69</ele>
        <time>2024-06-03T17:27:49Z</time>
      </trkpt>
      <trkpt lat="48.5935" lon="-3.14614">
        <ele>78</ele>
        <time>2024-06-03T17:28:06Z</time>
      </trkpt>
      <trkpt lat="48.59216" lon="-3.14406">
        <ele>89</ele>
        <time>2024-06-03T17:28:51Z</time>
      </trkpt>
      <trkpt lat="48.59209" lon="-3.14211">
        <ele>95</ele>
        <time>2024-06-03T17:29:21Z</time>
      </trkpt>
      <trkpt lat="48.59129" lon="-3.14222">
        <ele>91</ele>
        <time>2024-06-03T17:29:40Z</time>
      </trkpt>
      <trkpt lat="48.58982" lon="-3.14305">
        <ele>91</ele>
        <time>2024-06-03T17:30:16Z</time>
      </trkpt>
      <trkpt lat="48.58908" lon="-3.14192">
        <ele>96</ele>
        <time>2024-06-03T17:30:41Z</time>
      </trkpt>
      <trkpt lat="48.5882" lon="-3.14204">
        <ele>102</ele>
        <time>2024-06-03T17:31:01Z</time>
      </trkpt>
      <trkpt lat="48.58797" lon="-3.14195">
        <ele>103</ele>
        <time>2024-06-03T17:31:07Z</time>
      </trkpt>
      <trkpt lat="48.58797" lon="-3.14145">
        <ele>103</ele>
        <time>2024-06-03T17:31:15Z</time>
      </trkpt>
      <trkpt lat="48.58786" lon="-3.14127">
        <ele>104</ele>
        <time>2024-06-03T17:31:18Z</time>
      </trkpt>
      <trkpt lat="48.58699" lon="-3.14181">
        <ele>111</ele>
        <time>2024-06-03T17:31:40Z</time>
      </trkpt>
      <trkpt lat="48.58663" lon="-3.14044">
        <ele>114</ele>
        <time>2024-06-03T17:32:03Z</time>
      </trkpt>
      <trkpt lat="48.58653" lon="-3.14018">
        <ele>115</ele>
        <time>2024-06-03T17:32:08Z</time>
      </trkpt>
      <trkpt lat="48.5865" lon="-3.1378">
        <ele>112</ele>
        <time>2024-06-03T17:32:45Z</time>
      </trkpt>
      <trkpt lat="48.58639" lon="-3.13712">
        <ele>111</ele>
        <time>2024-06-03T17:32:55Z</time>
      </trkpt>
      <trkpt lat="48.58637" lon="-3.13497">
        <ele>110</ele>
        <time>2024-06-03T17:33:29Z</time>
      </trkpt>
      <trkpt lat="48.58665" lon="-3.13477">
        <ele>109</ele>
        <time>2024-06-03T17:33:36Z</time>
      </trkpt>
      <trkpt lat="48.58671" lon="-3.13427">
        <ele>110</ele>
        <time>2024-06-03T17:33:44Z</time>
      </trkpt>
      <trkpt lat="48.58662" lon="-3.13405">
        <ele>110</ele>
        <time>2024-06-03T17:33:48Z</time>
      </trkpt>
      <trkpt lat="48.58668" lon="-3.13338">
        <ele>106</ele>
        <time>2024-06-03T17:33:58Z</time>
      </trkpt>
      <trkpt lat="48.58635" lon="-3.13322">
        <ele>107</ele>
        <time>2024-06-03T17:34:06Z</time>
      </trkpt>
      <trkpt lat="48.58671" lon="-3.13259">
        <ele>102</ele>
        <time>2024-06-03T17:34:19Z</time>
      </trkpt>
      <trkpt lat="48.58709" lon="-3.13259">
        <ele>101</ele>
        <time>2024-06-03T17:34:28Z</time>
      </trkpt>
      <trkpt lat="48.58743" lon="-3.13181">
        <ele>98</ele>
        <time>2024-06-03T17:34:42Z</time>
      </trkpt>
      <trkpt lat="48.58759" lon="-3.13098">
        <ele>97</ele>
        <time>2024-06-03T17:34:56Z</time>
      </trkpt>
      <trkpt lat="48.58737" lon="-3.12947">
        <ele>91</ele>
        <time>2024-06-03T17:35:20Z</time>
      </trkpt>
      <trkpt lat="48.58739" lon="-3.12775">
        <ele>78</ele>
        <time>2024-06-03T17:35:46Z</time>
      </trkpt>
      <trkpt lat="48.58655" lon="-3.12779">
        <ele>80</ele>
        <time>2024-06-03T17:36:06Z</time>
      </trkpt>
      <trkpt lat="48.58552" lon="-3.12818">
        <ele>90</ele>
        <time>2024-06-03T17:36:31Z</time>
      </trkpt>
      <trkpt lat="48.5846" lon="-3.12788">
        <ele>97</ele>
        <time>2024-06-03T17:36:53Z</time>
      </trkpt>
      <trkpt lat="48.58406" lon="-3.12739">
        <ele>100</ele>
        <time>2024-06-03T17:37:07Z</time>
      </trkpt>
      <trkpt lat="48.5836" lon="-3.12712">
        <ele>102</ele>
        <time>2024-06-03T17:37:19Z</time>
      </trkpt>
      <trkpt lat="48.58284" lon="-3.12616">
        <ele>104</ele>
        <time>2024-06-03T17:37:42Z</time>
      </trkpt>
      <trkpt lat="48.58195" lon="-3.12606">
        <ele>101</ele>
        <time>2024-06-03T17:38:03Z</time>
      </trkpt>
      <trkpt lat="48.58167" lon="-3.12555">
        <ele>94</ele>
        <time>2024-06-03T17:38:13Z</time>
      </trkpt>
      <trkpt lat="48.58234" lon="-3.12474">
        <ele>94</ele>
        <time>2024-06-03T17:38:33Z</time>
      </trkpt>
      <trkpt lat="48.58295" lon="-3.12412">
        <ele>89</ele>
        <time>2024-06-03T17:38:50Z</time>
      </trkpt>
      <trkpt lat="48.58314" lon="-3.12317">
        <ele>95</ele>
        <time>2024-06-03T17:39:06Z</time>
      </trkpt>
      <trkpt lat="48.584" lon="-3.12232">
        <ele>98</ele>
        <time>2024-06-03T17:39:30Z</time>
      </trkpt>
      <trkpt lat="48.58495" lon="-3.12239">
        <ele>106</ele>
        <time>2024-06-03T17:39:52Z</time>
      </trkpt>
      <trkpt lat="48.58556" lon="-3.12142">
        <ele>113</ele>
        <time>2024-06-03T17:40:13Z</time>
      </trkpt>
      <trkpt lat="48.58537" lon="-3.11956">
        <ele>113</ele>
        <time>2024-06-03T17:40:42Z</time>
      </trkpt>
      <trkpt lat="48.58565" lon="-3.11884">
        <ele>118</ele>
        <time>2024-06-03T17:40:55Z</time>
      </trkpt>
      <trkpt lat="48.58617" lon="-3.11853">
        <ele>120</ele>
        <time>2024-06-03T17:41:08Z</time>
      </trkpt>
      <trkpt lat="48.58718" lon="-3.11729">
        <ele>119</ele>
        <time>2024-06-03T17:41:38Z</time>
      </trkpt>
      <trkpt lat="48.58612" lon="-3.1171">
        <ele>119</ele>
        <time>2024-06-03T17:42:03Z</time>
      </trkpt>
      <trkpt lat="48.58432" lon="-3.11713">
        <ele>115</ele>
        <time>2024-06-03T17:42:45Z</time>
      </trkpt>
      <trkpt lat="48.58456" lon="-3.11425">
        <ele>116</ele>
        <time>2024-06-03T17:43:30Z</time>
      </trkpt>
      <trkpt lat="48.58339" lon="-3.11173">
        <ele>114</ele>
        <time>2024-06-03T17:44:17Z</time>
      </trkpt>
      <trkpt lat="48.58184" lon="-3.11061">
        <ele>119</ele>
        <time>2024-06-03T17:44:57Z</time>
      </trkpt>
      <trkpt lat="48.58137" lon="-3.10979">
        <ele>120</ele>
        <time>2024-06-03T17:45:14Z</time>
      </trkpt>
      <trkpt lat="48.57999" lon="-3.10904">
        <ele>118</ele>
        <time>2024-06-03T17:45:48Z</time>
      </trkpt>
      <trkpt lat="48.57958" lon="-3.10988">
        <ele>118</ele>
        <time>2024-06-03T17:46:05Z</time>
      </trkpt>
      <trkpt lat="48.57905" lon="-3.11037">
        <ele>116</ele>
        <time>2024-06-03T17:46:19Z</time>
      </trkpt>
      <trkpt lat="48.57861" lon="-3.10849">
        <ele>121</ele>
        <time>2024-06-03T17:46:50Z</time>
      </trkpt>
      <trkpt lat="48.57869" lon="-3.10749">
        <ele>122</ele>
        <time>2024-06-03T17:47:05Z</time>
      </trkpt>
      <trkpt lat="48.57809" lon="-3.10627">
        <ele>121</ele>
        <time>2024-06-03T17:47:29Z</time>
      </trkpt>
      <trkpt lat="48.57635" lon="-3.10484">
        <ele>122</ele>
        <time>2024-06-03T17:48:15Z</time>
      </trkpt>
      <trkpt lat="48.57489" lon="-3.10413">
        <ele>122</ele>
        <time>2024-06-03T17:48:51Z</time>
      </trkpt>
      <trkpt lat="48.57478" lon="-3.10272">
        <ele>124</ele>
        <time>2024-06-03T17:49:13Z</time>
      </trkpt>
      <trkpt lat="48.57604" lon="-3.09593">
        <ele>121</ele>
        <time>2024-06-03T17:51:02Z</time>
      </trkpt>
      <trkpt lat="48.57337" lon="-3.09508">
        <ele>125</ele>
        <time>2024-06-03T17:52:06Z</time>
      </trkpt>
      <trkpt lat="48.57266" lon="-3.09473">
        <ele>127</ele>
        <time>2024-06-03T17:52:23Z</time>
      </trkpt>
      <trkpt lat="48.57198" lon="-3.09362">
        <ele>129</ele>
        <time>2024-06-03T17:52:46Z</time>
      </trkpt>
      <trkpt lat="48.57101" lon="-3.09387">
        <ele>130</ele>
        <time>2024-06-03T17:53:09Z</time>
      </trkpt>
      <trkpt lat="48.57056" lon="-3.09441">
        <ele>130</ele>
        <time>2024-06-03T17:53:23Z</time>
      </trkpt>
      <trkpt lat="48.56952" lon="-3.09375">
        <ele>131</ele>
        <time>2024-06-03T17:53:49Z</time>
      </trkpt>
      <trkpt lat="48.56901" lon="-3.0963">
        <ele>133</ele>
        <time>2024-06-03T17:54:30Z</time>
      </trkpt>
      <trkpt lat="48.56807" lon="-3.09561">
        <ele>133</ele>
        <time>2024-06-03T17:54:55Z</time>
      </trkpt>
      <trkpt lat="48.56673" lon="-3.09366">
        <ele>132</ele>
        <time>2024-06-03T17:55:38Z</time>
      </trkpt>
      <trkpt lat="48.56568" lon="-3.09261">
        <ele>131</ele>
        <time>2024-06-03T17:56:08Z</time>
      </trkpt>
      <trkpt lat="48.56528" lon="-3.09161">
        <ele>132</ele>
        <time>2024-06-03T17:56:26Z</time>
      </trkpt>
      <trkpt lat="48.56398" lon="-3.09028">
        <ele>132</ele>
        <time>2024-06-03T17:57:02Z</time>
      </trkpt>
      <trkpt lat="48.56319" lon="-3.0893">
        <ele>130</ele>
        <time>2024-06-03T17:57:26Z</time>
      </trkpt>
      <trkpt lat="48.56556" lon="-3.08764">
        <ele>131</ele>
        <time>2024-06-03T17:58:27Z</time>
      </trkpt>
      <trkpt lat="48.56661" lon="-3.08673">
        <ele>130</ele>
        <time>2024-06-03T17:58:55Z</time>
      </trkpt>
      <trkpt lat="48.56898" lon="-3.0863">
        <ele>128</ele>
        <time>2024-06-03T17:59:51Z</time>
      </trkpt>
      <trkpt lat="48.56747" lon="-3.08445">
        <ele>128</ele>
        <time>2024-06-03T18:00:37Z</time>
      </trkpt>
      <trkpt lat="48.56667" lon="-3.0853">
        <ele>130</ele>
        <time>2024-06-03T18:00:59Z</time>
      </trkpt>
      <trkpt lat="48.56612" lon="-3.08651">
        <ele>130</ele>
        <time>2024-06-03T18:01:22Z</time>
      </trkpt>
      <trkpt lat="48.56552" lon="-3.08715">
        <ele>131</ele>
        <time>2024-06-03T18:01:39Z</time>
      </trkpt>
      <trkpt lat="48.56434" lon="-3.08609">
        <ele>133</ele>
        <time>2024-06-03T18:02:11Z</time>
      </trkpt>
      <trkpt lat="48.56498" lon="-3.08405">
        <ele>130</ele>
        <time>2024-06-03T18:02:46Z</time>
      </trkpt>
      <trkpt lat="48.56488" lon="-3.0829">
        <ele>130</ele>
        <time>2024-06-03T18:03:04Z</time>
      </trkpt>
      <trkpt lat="48.56522" lon="-3.08181">
        <ele>130</ele>
        <time>2024-06-03T18:03:23Z</time>
      </trkpt>
      <trkpt lat="48.56562" lon="-3.08138">
        <ele>128</ele>
        <time>2024-06-03T18:03:34Z</time>
      </trkpt>
      <trkpt lat="48.56504" lon="-3.08063">
        <ele>129</ele>
        <time>2024-06-03T18:03:52Z</time>
      </trkpt>
      <trkpt lat="48.56518" lon="-3.0795">
        <ele>126</ele>
        <time>2024-06-03T18:04:10Z</time>
      </trkpt>
      <trkpt lat="48.56522" lon="-3.07882">
        <ele>125</ele>
        <time>2024-06-03T18:04:20Z</time>
      </trkpt>
      <trkpt lat="48.56517" lon="-3.07774">
        <ele>125</ele>
        <time>2024-06-03T18:04:37Z</time>
      </trkpt>
      <trkpt lat="48.56558" lon="-3.07753">
        <ele>124</ele>
        <time>2024-06-03T18:04:47Z</time>
      </trkpt>
      <trkpt lat="48.56601" lon="-3.07772">
        <ele>123</ele>
        <time>2024-06-03T18:04:58Z</time>
      </trkpt>
      <trkpt lat="48.56638" lon="-3.07814">
        <ele>123</ele>
        <time>2024-06-03T18:05:09Z</time>
      </trkpt>
      <trkpt lat="48.56668" lon="-3.07818">
        <ele>123</ele>
        <time>2024-06-03T18:05:16Z</time>
      </trkpt>
      <trkpt lat="48.56714" lon="-3.07752">
        <ele>122</ele>
        <time>2024-06-03T18:05:30Z</time>
      </trkpt>
      <trkpt lat="48.56739" lon="-3.07692">
        <ele>121</ele>
        <time>2024-06-03T18:05:41Z</time>
      </trkpt>
      <trkpt lat="48.56778" lon="-3.07644">
        <ele>120</ele>
        <time>2024-06-03T18:05:53Z</time>
      </trkpt>
      <trkpt lat="48.56847" lon="-3.07615">
        <ele>120</ele>
        <time>2024-06-03T18:06:10Z</time>
      </trkpt>
      <trkpt lat="48.56929" lon="-3.07552">
        <ele>119</ele>
        <time>2024-06-03T18:06:31Z</time>
      </trkpt>
      <trkpt lat="48.56964" lon="-3.07543">
        <ele>119</ele>
        <time>2024-06-03T18:06:40Z</time>
      </trkpt>
      <trkpt lat="48.56993" lon="-3.07469">
        <ele>118</ele>
        <time>2024-06-03T18:06:53Z</time>
      </trkpt>
      <trkpt lat="48.57015" lon="-3.07456">
        <ele>118</ele>
        <time>2024-06-03T18:06:58Z</time>
      </trkpt>
      <trkpt lat="48.57034" lon="-3.07427">
        <ele>119</ele>
        <time>2024-06-03T18:07:05Z</time>
      </trkpt>
      <trkpt lat="48.57062" lon="-3.07396">
        <ele>119</ele>
        <time>2024-06-03T18:07:13Z</time>
      </trkpt>
      <trkpt lat="48.57078" lon="-3.07349">
        <ele>119</ele>
        <time>2024-06-03T18:07:21Z</time>
      </trkpt>
      <trkpt lat="48.57106" lon="-3.07228">
        <ele>120</ele>
        <time>2024-06-03T18:07:41Z</time>
      </trkpt>
      <trkpt lat="48.57126" lon="-3.07188">
        <ele>123</ele>
        <time>2024-06-03T18:07:48Z</time>
      </trkpt>
      <trkpt lat="48.57115" lon="-3.07068">
        <ele>128</ele>
        <time>2024-06-03T18:08:07Z</time>
      </trkpt>
      <trkpt lat="48.57031" lon="-3.07001">
        <ele>119</ele>
        <time>2024-06-03T18:08:29Z</time>
      </trkpt>
      <trkpt lat="48.56952" lon="-3.07028">
        <ele>115</ele>
        <time>2024-06-03T18:08:48Z</time>
      </trkpt>
      <trkpt lat="48.56927" lon="-3.07073">
        <ele>114</ele>
        <time>2024-06-03T18:08:57Z</time>
      </trkpt>
      <trkpt lat="48.56881" lon="-3.07087">
        <ele>115</ele>
        <time>2024-06-03T18:09:08Z</time>
      </trkpt>
      <trkpt lat="48.56798" lon="-3.07063">
        <ele>117</ele>
        <time>2024-06-03T18:09:28Z</time>
      </trkpt>
      <trkpt lat="48.56756" lon="-3.07144">
        <ele>117</ele>
        <time>2024-06-03T18:09:44Z</time>
      </trkpt>
      <trkpt lat="48.56693" lon="-3.07362">
        <ele>120</ele>
        <time>2024-06-03T18:10:21Z</time>
      </trkpt>
      <trkpt lat="48.56668" lon="-3.07424">
        <ele>120</ele>
        <time>2024-06-03T18:10:32Z</time>
      </trkpt>
      <trkpt lat="48.56605" lon="-3.07564">
        <ele>121</ele>
        <time>2024-06-03T18:10:58Z</time>
      </trkpt>
      <trkpt lat="48.56598" lon="-3.07616">
        <ele>121</ele>
        <time>2024-06-03T18:11:06Z</time>
      </trkpt>
      <trkpt lat="48.56474" lon="-3.07802">
        <ele>125</ele>
        <time>2024-06-03T18:11:47Z</time>
      </trkpt>
      <trkpt lat="48.56359" lon="-3.07923">
        <ele>127</ele>
        <time>2024-06-03T18:12:20Z</time>
      </trkpt>
      <trkpt lat="48.56281" lon="-3.08081">
        <ele>131</ele>
        <time>2024-06-03T18:12:50Z</time>
      </trkpt>
      <trkpt lat="48.56243" lon="-3.08129">
        <ele>131</ele>
        <time>2024-06-03T18:13:02Z</time>
      </trkpt>
      <trkpt lat="48.56195" lon="-3.08266">
        <ele>132</ele>
        <time>2024-06-03T18:13:26Z</time>
      </trkpt>
      <trkpt lat="48.56004" lon="-3.08148">
        <ele>130</ele>
        <time>2024-06-03T18:14:14Z</time>
      </trkpt>
      <trkpt lat="48.55958" lon="-3.08151">
        <ele>130</ele>
        <time>2024-06-03T18:14:25Z</time>
      </trkpt>
      <trkpt lat="48.55841" lon="-3.08063">
        <ele>131</ele>
        <time>2024-06-03T18:14:55Z</time>
      </trkpt>
      <trkpt lat="48.55737" lon="-3.07884">
        <ele>129</ele>
        <time>2024-06-03T18:15:32Z</time>
      </trkpt>
      <trkpt lat="48.55735" lon="-3.07783">
        <ele>129</ele>
        <time>2024-06-03T18:15:48Z</time>
      </trkpt>
      <trkpt lat="48.55592" lon="-3.07771">
        <ele>128</ele>
        <time>2024-06-03T18:16:21Z</time>
      </trkpt>
      <trkpt lat="48.55558" lon="-3.07711">
        <ele>129</ele>
        <time>2024-06-03T18:16:33Z</time>
      </trkpt>
      <trkpt lat="48.5554" lon="-3.07665">
        <ele>130</ele>
        <time>2024-06-03T18:16:42Z</time>
      </trkpt>
      <trkpt lat="48.5548" lon="-3.07674">
        <ele>130</ele>
        <time>2024-06-03T18:16:56Z</time>
      </trkpt>
      <trkpt lat="48.55415" lon="-3.07659">
        <ele>129</ele>
        <time>2024-06-03T18:17:11Z</time>
      </trkpt>
      <trkpt lat="48.55444" lon="-3.07847">
        <ele>128</ele>
        <time>2024-06-03T18:17:41Z</time>
      </trkpt>
      <trkpt lat="48.55502" lon="-3.07978">
        <ele>128</ele>
        <time>2024-06-03T18:18:05Z</time>
      </trkpt>
      <trkpt lat="48.55554" lon="-3.0816">
        <ele>128</ele>
        <time>2024-06-03T18:18:36Z</time>
      </trkpt>
      <trkpt lat="48.55564" lon="-3.08348">
        <ele>126</ele>
        <time>2024-06-03T18:19:05Z</time>
      </trkpt>
      <trkpt lat="48.55663" lon="-3.08645">
        <ele>121</ele>
        <time>2024-06-03T18:19:56Z</time>
      </trkpt>
      <trkpt lat="48.55618" lon="-3.08654">
        <ele>121</ele>
        <time>2024-06-03T18:20:07Z</time>
      </trkpt>
      <trkpt lat="48.55542" lon="-3.08676">
        <ele>120</ele>
        <time>2024-06-03T18:20:25Z</time>
      </trkpt>
      <trkpt lat="48.55389" lon="-3.08733">
        <ele>117</ele>
        <time>2024-06-03T18:21:02Z</time>
      </trkpt>
      <trkpt lat="48.55361" lon="-3.08679">
        <ele>118</ele>
        <time>2024-06-03T18:21:13Z</time>
      </trkpt>
      <trkpt lat="48.55373" lon="-3.08545">
        <ele>120</ele>
        <time>2024-06-03T18:21:33Z</time>
      </trkpt>
      <trkpt lat="48.55385" lon="-3.08445">
        <ele>121</ele>
        <time>2024-06-03T18:21:49Z</time>
      </trkpt>
      <trkpt lat="48.55331" lon="-3.08399">
        <ele>120</ele>
        <time>2024-06-03T18:22:04Z</time>
      </trkpt>
      <trkpt lat="48.55267" lon="-3.0839">
        <ele>122</ele>
        <time>2024-06-03T18:22:19Z</time>
      </trkpt>
      <trkpt lat="48.55186" lon="-3.08302">
        <ele>125</ele>
        <time>2024-06-03T18:22:42Z</time>
      </trkpt>
      <trkpt lat="48.5515" lon="-3.08278">
        <ele>127</ele>
        <time>2024-06-03T18:22:51Z</time>
      </trkpt>
      <trkpt lat="48.55084" lon="-3.07789">
        <ele>133</ele>
        <time>2024-06-03T18:24:08Z</time>
      </trkpt>
      <trkpt lat="48.5498" lon="-3.07701">
        <ele>136</ele>
        <time>2024-06-03T18:24:36Z</time>
      </trkpt>
      <trkpt lat="48.54815" lon="-3.07671">
        <ele>139</ele>
        <time>2024-06-03T18:25:15Z</time>
      </trkpt>
      <trkpt lat="48.54737" lon="-3.0768">
        <ele>139</ele>
        <time>2024-06-03T18:25:33Z</time>
      </trkpt>
      <trkpt lat="48.54622" lon="-3.07884">
        <ele>132</ele>
        <time>2024-06-03T18:26:15Z</time>
      </trkpt>
      <trkpt lat="48.54618" lon="-3.07984">
        <ele>130</ele>
        <time>2024-06-03T18:26:30Z</time>
      </trkpt>
      <trkpt lat="48.5467" lon="-3.08099">
        <ele>129</ele>
        <time>2024-06-03T18:26:52Z</time>
      </trkpt>
      <trkpt lat="48.54724" lon="-3.08278">
        <ele>130</ele>
        <time>2024-06-03T18:27:22Z</time>
      </trkpt>
      <trkpt lat="48.54805" lon="-3.08396">
        <ele>128</ele>
        <time>2024-06-03T18:27:48Z</time>
      </trkpt>
      <trkpt lat="48.54807" lon="-3.08445">
        <ele>128</ele>
        <time>2024-06-03T18:27:56Z</time>
      </trkpt>
      <trkpt lat="48.54921" lon="-3.08472">
        <ele>127</ele>
        <time>2024-06-03T18:28:23Z</time>
      </trkpt>
      <trkpt lat="48.55084" lon="-3.08484">
        <ele>126</ele>
        <time>2024-06-03T18:29:01Z</time>
      </trkpt>
      <trkpt lat="48.55148" lon="-3.08493">
        <ele>124</ele>
        <time>2024-06-03T18:29:16Z</time>
      </trkpt>
      <trkpt lat="48.55203" lon="-3.08548">
        <ele>123</ele>
        <time>2024-06-03T18:29:31Z</time>
      </trkpt>
      <trkpt lat="48.55323" lon="-3.0941">
        <ele>118</ele>
        <time>2024-06-03T18:31:48Z</time>
      </trkpt>
      <trkpt lat="48.55315" lon="-3.09501">
        <ele>120</ele>
        <time>2024-06-03T18:32:02Z</time>
      </trkpt>
      <trkpt lat="48.55251" lon="-3.09568">
        <ele>121</ele>
        <time>2024-06-03T18:32:20Z</time>
      </trkpt>
      <trkpt lat="48.55215" lon="-3.09583">
        <ele>121</ele>
        <time>2024-06-03T18:32:29Z</time>
      </trkpt>
      <trkpt lat="48.5517" lon="-3.0955">
        <ele>122</ele>
        <time>2024-06-03T18:32:40Z</time>
      </trkpt>
      <trkpt lat="48.55134" lon="-3.09786">
        <ele>120</ele>
        <time>2024-06-03T18:33:18Z</time>
      </trkpt>
      <trkpt lat="48.55128" lon="-3.09941">
        <ele>117</ele>
        <time>2024-06-03T18:33:42Z</time>
      </trkpt>
      <trkpt lat="48.5512" lon="-3.10023">
        <ele>116</ele>
        <time>2024-06-03T18:33:55Z</time>
      </trkpt>
      <trkpt lat="48.55166" lon="-3.10071">
        <ele>116</ele>
        <time>2024-06-03T18:34:08Z</time>
      </trkpt>
      <trkpt lat="48.55168" lon="-3.10138">
        <ele>117</ele>
        <time>2024-06-03T18:34:18Z</time>
      </trkpt>
      <trkpt lat="48.55305" lon="-3.1022">
        <ele>118</ele>
        <time>2024-06-03T18:34:52Z</time>
      </trkpt>
      <trkpt lat="48.55446" lon="-3.10281">
        <ele>120</ele>
        <time>2024-06-03T18:35:27Z</time>
      </trkpt>
      <trkpt lat="48.5545" lon="-3.10345">
        <ele>121</ele>
        <time>2024-06-03T18:35:37Z</time>
      </trkpt>
      <trkpt lat="48.5549" lon="-3.10572">
        <ele>121</ele>
        <time>2024-06-03T18:36:13Z</time>
      </trkpt>
      <trkpt lat="48.55492" lon="-3.10657">
        <ele>120</ele>
        <time>2024-06-03T18:36:26Z</time>
      </trkpt>
      <trkpt lat="48.55542" lon="-3.10873">
        <ele>121</ele>
        <time>2024-06-03T18:37:01Z</time>
      </trkpt>
      <trkpt lat="48.556" lon="-3.11307">
        <ele>117</ele>
        <time>2024-06-03T18:38:10Z</time>
      </trkpt>
      <trkpt lat="48.55671" lon="-3.11313">
        <ele>116</ele>
        <time>2024-06-03T18:38:27Z</time>
      </trkpt>
      <trkpt lat="48.55765" lon="-3.11325">
        <ele>120</ele>
        <time>2024-06-03T18:38:49Z</time>
      </trkpt>
      <trkpt lat="48.55777" lon="-3.11522">
        <ele>121</ele>
        <time>2024-06-03T18:39:19Z</time>
      </trkpt>
      <trkpt lat="48.55827" lon="-3.11744">
        <ele>117</ele>
        <time>2024-06-03T18:39:55Z</time>
      </trkpt>
      <trkpt lat="48.55875" lon="-3.11777">
        <ele>118</ele>
        <time>2024-06-03T18:40:08Z</time>
      </trkpt>
      <trkpt lat="48.55891" lon="-3.11838">
        <ele>118</ele>
        <time>2024-06-03T18:40:18Z</time>
      </trkpt>
      <trkpt lat="48.55839" lon="-3.11859">
        <ele>117</ele>
        <time>2024-06-03T18:40:30Z</time>
      </trkpt>
      <trkpt lat="48.55851" lon="-3.11892">
        <ele>116</ele>
        <time>2024-06-03T18:40:36Z</time>
      </trkpt>
      <trkpt lat="48.55902" lon="-3.11974">
        <ele>113</ele>
        <time>2024-06-03T18:40:54Z</time>
      </trkpt>
      <trkpt lat="48.55932" lon="-3.11965">
        <ele>114</ele>
        <time>2024-06-03T18:41:01Z</time>
      </trkpt>
      <trkpt lat="48.55934" lon="-3.11859">
        <ele>119</ele>
        <time>2024-06-03T18:41:17Z</time>
      </trkpt>
      <trkpt lat="48.55956" lon="-3.11789">
        <ele>121</ele>
        <time>2024-06-03T18:41:29Z</time>
      </trkpt>
      <trkpt lat="48.55948" lon="-3.11731">
        <ele>122</ele>
        <time>2024-06-03T18:41:38Z</time>
      </trkpt>
      <trkpt lat="48.5599" lon="-3.11722">
        <ele>124</ele>
        <time>2024-06-03T18:41:48Z</time>
      </trkpt>
      <trkpt lat="48.55988" lon="-3.11643">
        <ele>124</ele>
        <time>2024-06-03T18:42:00Z</time>
      </trkpt>
      <trkpt lat="48.56016" lon="-3.1154">
        <ele>124</ele>
        <time>2024-06-03T18:42:18Z</time>
      </trkpt>
      <trkpt lat="48.56032" lon="-3.11428">
        <ele>124</ele>
        <time>2024-06-03T18:42:35Z</time>
      </trkpt>
      <trkpt lat="48.56082" lon="-3.11334">
        <ele>122</ele>
        <time>2024-06-03T18:42:54Z</time>
      </trkpt>
      <trkpt lat="48.56072" lon="-3.1127">
        <ele>122</ele>
        <time>2024-06-03T18:43:04Z</time>
      </trkpt>
      <trkpt lat="48.55926" lon="-3.11264">
        <ele>124</ele>
        <time>2024-06-03T18:43:38Z</time>
      </trkpt>
      <trkpt lat="48.55877" lon="-3.11279">
        <ele>123</ele>
        <time>2024-06-03T18:43:50Z</time>
      </trkpt>
      <trkpt lat="48.55851" lon="-3.11134">
        <ele>121</ele>
        <time>2024-06-03T18:44:13Z</time>
      </trkpt>
      <trkpt lat="48.55793" lon="-3.11131">
        <ele>119</ele>
        <time>2024-06-03T18:44:27Z</time>
      </trkpt>
      <trkpt lat="48.55771" lon="-3.1114">
        <ele>119</ele>
        <time>2024-06-03T18:44:32Z</time>
      </trkpt>
      <trkpt lat="48.55608" lon="-3.11076">
        <ele>118</ele>
        <time>2024-06-03T18:45:11Z</time>
      </trkpt>
      <trkpt lat="48.55586" lon="-3.10942">
        <ele>120</ele>
        <time>2024-06-03T18:45:33Z</time>
      </trkpt>
      <trkpt lat="48.55612" lon="-3.10772">
        <ele>120</ele>
        <time>2024-06-03T18:46:00Z</time>
      </trkpt>
      <trkpt lat="48.5562" lon="-3.10675">
        <ele>120</ele>
        <time>2024-06-03T18:46:15Z</time>
      </trkpt>
      <trkpt lat="48.55612" lon="-3.10472">
        <ele>121</ele>
        <time>2024-06-03T18:46:46Z</time>
      </trkpt>
      <trkpt lat="48.55652" lon="-3.10369">
        <ele>120</ele>
        <time>2024-06-03T18:47:05Z</time>
      </trkpt>
      <trkpt lat="48.55667" lon="-3.10308">
        <ele>119</ele>
        <time>2024-06-03T18:47:15Z</time>
      </trkpt>
      <trkpt lat="48.55711" lon="-3.1009">
        <ele>115</ele>
        <time>2024-06-03T18:47:50Z</time>
      </trkpt>
      <trkpt lat="48.55715" lon="-3.09968">
        <ele>113</ele>
        <time>2024-06-03T18:48:09Z</time>
      </trkpt>
      <trkpt lat="48.55626" lon="-3.09911">
        <ele>114</ele>
        <time>2024-06-03T18:48:31Z</time>
      </trkpt>
      <trkpt lat="48.55562" lon="-3.09898">
        <ele>114</ele>
        <time>2024-06-03T18:48:46Z</time>
      </trkpt>
      <trkpt lat="48.55464" lon="-3.09835">
        <ele>114</ele>
        <time>2024-06-03T18:49:11Z</time>
      </trkpt>
      <trkpt lat="48.55421" lon="-3.09832">
        <ele>115</ele>
        <time>2024-06-03T18:49:21Z</time>
      </trkpt>
      <trkpt lat="48.55436" lon="-3.09774">
        <ele>114</ele>
        <time>2024-06-03T18:49:31Z</time>
      </trkpt>
      <trkpt lat="48.55528" lon="-3.09774">
        <ele>112</ele>
        <time>2024-06-03T18:49:52Z</time>
      </trkpt>
      <trkpt lat="48.556" lon="-3.09729">
        <ele>111</ele>
        <time>2024-06-03T18:50:11Z</time>
      </trkpt>
      <trkpt lat="48.5562" lon="-3.09638">
        <ele>109</ele>
        <time>2024-06-03T18:50:26Z</time>
      </trkpt>
      <trkpt lat="48.55544" lon="-3.09519">
        <ele>113</ele>
        <time>2024-06-03T18:50:51Z</time>
      </trkpt>
      <trkpt lat="48.55508" lon="-3.09446">
        <ele>114</ele>
        <time>2024-06-03T18:51:05Z</time>
      </trkpt>
      <trkpt lat="48.55444" lon="-3.09446">
        <ele>116</ele>
        <time>2024-06-03T18:51:20Z</time>
      </trkpt>
      <trkpt lat="48.55403" lon="-3.09328">
        <ele>117</ele>
        <time>2024-06-03T18:51:41Z</time>
      </trkpt>
      <trkpt lat="48.55385" lon="-3.09234">
        <ele>118</ele>
        <time>2024-06-03T18:51:56Z</time>
      </trkpt>
      <trkpt lat="48.55407" lon="-3.09161">
        <ele>116</ele>
        <time>2024-06-03T18:52:08Z</time>
      </trkpt>
      <trkpt lat="48.55504" lon="-3.09219">
        <ele>116</ele>
        <time>2024-06-03T18:52:33Z</time>
      </trkpt>
      <trkpt lat="48.55518" lon="-3.09125">
        <ele>116</ele>
        <time>2024-06-03T18:52:47Z</time>
      </trkpt>
      <trkpt lat="48.55508" lon="-3.09067">
        <ele>115</ele>
        <time>2024-06-03T18:52:57Z</time>
      </trkpt>
      <trkpt lat="48.55608" lon="-3.08955">
        <ele>117</ele>
        <time>2024-06-03T18:53:26Z</time>
      </trkpt>
      <trkpt lat="48.55622" lon="-3.08821">
        <ele>119</ele>
        <time>2024-06-03T18:53:47Z</time>
      </trkpt>
      <trkpt lat="48.5562" lon="-3.08697">
        <ele>120</ele>
        <time>2024-06-03T18:54:06Z</time>
      </trkpt>
      <trkpt lat="48.55689" lon="-3.08712">
        <ele>121</ele>
        <time>2024-06-03T18:54:22Z</time>
      </trkpt>
      <trkpt lat="48.55823" lon="-3.08748">
        <ele>126</ele>
        <time>2024-06-03T18:54:54Z</time>
      </trkpt>
      <trkpt lat="48.55946" lon="-3.08839">
        <ele>127</ele>
        <time>2024-06-03T18:55:26Z</time>
      </trkpt>
      <trkpt lat="48.56006" lon="-3.08803">
        <ele>128</ele>
        <time>2024-06-03T18:55:41Z</time>
      </trkpt>
      <trkpt lat="48.56054" lon="-3.08852">
        <ele>126</ele>
        <time>2024-06-03T18:55:55Z</time>
      </trkpt>
      <trkpt lat="48.56084" lon="-3.08836">
        <ele>126</ele>
        <time>2024-06-03T18:56:02Z</time>
      </trkpt>
      <trkpt lat="48.56181" lon="-3.08855">
        <ele>127</ele>
        <time>2024-06-03T18:56:25Z</time>
      </trkpt>
      <trkpt lat="48.56235" lon="-3.08915">
        <ele>127</ele>
        <time>2024-06-03T18:56:41Z</time>
      </trkpt>
      <trkpt lat="48.56301" lon="-3.08921">
        <ele>129</ele>
        <time>2024-06-03T18:56:56Z</time>
      </trkpt>
      <trkpt lat="48.56283" lon="-3.09">
        <ele>129</ele>
        <time>2024-06-03T18:57:09Z</time>
      </trkpt>
      <trkpt lat="48.5603" lon="-3.09553">
        <ele>114</ele>
        <time>2024-06-03T18:58:53Z</time>
      </trkpt>
      <trkpt lat="48.55848" lon="-3.10019">
        <ele>112</ele>
        <time>2024-06-03T19:00:16Z</time>
      </trkpt>
      <trkpt lat="48.558" lon="-3.1013">
        <ele>114</ele>
        <time>2024-06-03T19:00:37Z</time>
      </trkpt>
      <trkpt lat="48.55775" lon="-3.10226">
        <ele>116</ele>
        <time>2024-06-03T19:00:53Z</time>
      </trkpt>
      <trkpt lat="48.5577" lon="-3.10354">
        <ele>119</ele>
        <time>2024-06-03T19:01:13Z</time>
      </trkpt>
      <trkpt lat="48.55774" lon="-3.1042">
        <ele>119</ele>
        <time>2024-06-03T19:01:23Z</time>
      </trkpt>
      <trkpt lat="48.55746" lon="-3.10425">
        <ele>120</ele>
        <time>2024-06-03T19:01:29Z</time>
      </trkpt>
      <trkpt lat="48.55728" lon="-3.10449">
        <ele>120</ele>
        <time>2024-06-03T19:01:35Z</time>
      </trkpt>
    </trkseg>
  </trk>
</gpx>